This demonstration page uses our WeatherBlox Daily Observations layout. Learn more.

Left ArrowRight Arrow

31.31129, -92.44514

Hourly Observations for January 9, 2020

Temp ( °F °C ) Dew Point ( °F °C ) Humidity (%) Winds ( mph kmh ) Pressure ( in mb ) Visibility ( mi km ) Precip ( " mm )
12:53 am 00:53 Clear 45 7.2 40 4.4 83 83 SE 8 13 30.25 1025 10 16 0.00 0.00
1:53 am 01:53 Clear 47 8.3 42 5.6 83 83 SE 7 11 30.24 1024 10 16 0.00 0.00
2:53 am 02:53 Cloudy 50 10 44 6.7 80 80 ESE 9 15 30.22 1023 10 16 0.00 0.00
3:53 am 03:53 Cloudy 51 10.6 45 7.2 80 80 SE 13 20 30.21 1023 10 16 0.00 0.00
4:53 am 04:53 Clear 51 10.6 46 7.8 83 83 SE 13 20 30.20 1023 10 16 0.00 0.00
5:53 am 05:53 Mostly Cloudy 50 10 46 7.8 86 86 SE 8 13 30.21 1023 10 16 0.00 0.00
6:53 am 06:53 Cloudy 50 10 47 8.3 89 89 SE 8 13 30.19 1023 10 16 0.00 0.00
7:53 am 07:53 Cloudy 54 12.2 50 10 87 87 SE 9 15 30.20 1023 10 16 0.00 0.00
8:53 am 08:53 Cloudy 57 13.9 52 11.1 83 83 SE 15 24 30.21 1023 10 16 0.00 0.00
9:53 am 09:53 Cloudy 60 15.6 53 11.7 78 78 SE 15 24 30.22 1023 10 16 0.00 0.00
10:53 am 10:53 Mostly Cloudy 65 18.3 56 13.3 73 73 SE 16 26 30.20 1023 10 16 0.00 0.00
11:53 am 11:53 Mostly Sunny 69 20.6 58 14.4 68 68 SE 17 28 30.16 1021 10 16 0.00 0.00
12:53 pm 12:53 Cloudy 71 21.7 59 15 66 66 SE 23 37 30.14 1021 10 16 0.00 0.00
1:53 pm 13:53 Cloudy 70 21.1 59 15 68 68 SSE 17 28 30.13 1020 10 16 0.00 0.00
2:53 pm 14:53 Cloudy 71 21.7 57 13.9 61 61 SSE 18 30 30.11 1020 10 16 0.00 0.00
3:53 pm 15:53 Cloudy 70 21.1 57 13.9 64 64 SSE 15 24 30.12 1020 10 16 0.00 0.00
4:53 pm 16:53 Cloudy 69 20.6 57 13.9 66 66 SSE 12 19 30.12 1020 10 16 0.00 0.00
5:53 pm 17:53 Mostly Cloudy 67 19.4 57 13.9 71 71 SSE 10 17 30.13 1020 10 16 0.00 0.00
6:53 pm 18:53 Clear 65 18.3 56 13.3 73 73 SSE 9 15 30.12 1020 10 16 0.00 0.00
7:53 pm 19:53 Mostly Cloudy 65 18.3 56 13.3 73 73 SSE 10 17 30.12 1020 10 16 0.00 0.00
8:53 pm 20:53 Mostly Clear 64 17.8 56 13.3 75 75 SE 10 17 30.12 1020 10 16 0.00 0.00
9:53 pm 21:53 Clear 64 17.8 57 13.9 78 78 SE 14 22 30.11 1020 10 16 0.00 0.00
10:53 pm 22:53 Clear 63 17.2 59 15 87 87 SE 12 19 30.10 1019 10 16 0.00 0.00
11:53 pm 23:53 Cloudy 64 17.8 60 15.6 87 87 SE 13 20 30.10 1019 10 16 0.00 0.00

Powered by AerisWeather